Location: Del Amo
(33.8464°N, 118.2104°W)
Time: 21:31:43
(UTC+00:00)

Courier 1B Rocket - Pass Details

Date: 14 September 2024
Orbit: 920 x 1201 km, 28.3° (Epoch: 13 October)

Event Time Altitude Azimuth Distance (km) Brightness Sun altitude
Rises 04:53:44 0° 270° (W) 3,960 8.9 -34.7°
Reaches altitude 10° 04:56:46 10° 261° (W) 3,036 8.0 -35.2°
Enters shadow 05:01:28 29° 227° (SW) 1,984 6.6 -36.0°
